Weather History for Hereford, TX

Change the Weather History Date:

Friday, August 9, 2013

  Actual Average (KAMA) Record (KAMA)
Temperature  
Mean Temperature 70 °F 78 °F  
Max Temperature 78 °F 90 °F 101 °F (1933)
Min Temperature 61 °F 65 °F 55 °F (1912)
Degree Days  
Heating Degree Days 0 0  
Month to date heating degree days 0  
Since 1 June heating degree days 7  
Since 1 July heating degree days 0  
Cooling Degree Days 4 13  
Month to date cooling degree days 117  
Year to date cooling degree days 942  
Since 1 June cooling degree days 817  
Growing Degree Days 20 (Base 50)    
Moisture  
Dew Point 60 °F    
Average Humidity 75    
Maximum Humidity 94    
Minimum Humidity 48    
Precipitation  
Precipitation 0.33 in 0.11 in 1.74 in (1927)
Month to date precipitation 0.97  
Year to date precipitation 13.33  
Snow  
Snow 0.00 in 0.00 in 0.00 in ()
Month to date snowfall 0.0  
Since 1 June snowfall 0.0  
Since 1 July snowfall 0.0  
Snow Depth -    
Sea Level Pressure  
Sea Level Pressure 30.16 in    
Wind  
Wind Speed 8 mph (North)    
Max Wind Speed 18 mph    
Max Gust Speed 25 mph    
Visibility 10 miles    
Events      
T = Trace of Precipitation, MM = Missing Value Source: NWS Daily Summary

Daily Weather History Graph

Daily Weather History Graph

Search for Another Location

Airport:

Trip Planner

Search our weather history database for the weather conditions in past years. The results will help you decide how hot, cold, wet, or windy it might be!

Date:

Astronomy

Aug. 09, 2013 Rise Set
Actual Time 7:05 AM CDT 8:43 PM CDT
Civil Twilight 6:38 AM CDT 9:10 PM CDT
Nautical Twilight 6:05 AM CDT 9:43 PM CDT
Astronomical Twilight 5:30 AM CDT 10:17 PM CDT
Moon 9:44 AM CDT (8/9) 10:04 PM CDT (8/9)
Length of Visible Light 14h 32m
Length of Day
13h 38m
Waxing Crescent, 8% of the Moon is Illuminated
Aug 9
Waxing Crescent
Aug 14
First Quarter
Aug 20
Full
Aug 28
Last Quarter
Sep 5
New

Hourly Weather History & Observations

Time (CDT) Temp. Dew Point Humidity Pressure Visibility Wind Dir Wind Speed Gust Speed Precip Events Conditions
12:15 AM 62.4 °F 59.4 °F 90% 30.10 in 10.0 mi Calm Calm - N/A   Scattered Clouds
12:35 AM 62.6 °F 59.5 °F 90% 30.10 in 10.0 mi NW 3.5 mph - N/A   Clear
12:55 AM 62.1 °F 59.4 °F 91% 30.10 in 10.0 mi NW 5.8 mph - N/A   Clear
1:15 AM 61.9 °F 59.4 °F 91% 30.09 in 10.0 mi NW 9.2 mph - N/A   Clear
1:35 AM 62.1 °F 59.4 °F 91% 30.09 in 10.0 mi NW 5.8 mph - N/A   Scattered Clouds
1:55 AM 62.1 °F 59.2 °F 90% 30.09 in 10.0 mi WNW 3.5 mph - N/A   Scattered Clouds
2:15 AM 62.6 °F 59.9 °F 91% 30.09 in 10.0 mi Calm Calm - N/A   Scattered Clouds
2:35 AM 62.6 °F 59.4 °F 89% 30.09 in 10.0 mi NW 3.5 mph - N/A   Scattered Clouds
2:55 AM 62.2 °F 59.0 °F 89% 30.09 in 10.0 mi WNW 5.8 mph - N/A   Clear
3:15 AM 61.9 °F 59.0 °F 90% 30.08 in 10.0 mi NW 5.8 mph - N/A   Clear
3:35 AM 61.9 °F 59.0 °F 90% 30.09 in 10.0 mi NW 6.9 mph - N/A   Clear
3:55 AM 61.9 °F 59.2 °F 91% 30.09 in 10.0 mi NW 11.5 mph - N/A   Clear
4:15 AM 62.2 °F 59.7 °F 91% 30.09 in 10.0 mi NNW 13.8 mph - N/A   Clear
4:35 AM 62.8 °F 60.1 °F 91% 30.09 in 10.0 mi NNW 18.4 mph 25.3 mph N/A   Clear
4:55 AM 63.3 °F 60.4 °F 90% 30.09 in 10.0 mi NNW 15.0 mph 23.0 mph N/A   Scattered Clouds
5:15 AM 63.5 °F 60.8 °F 91% 30.10 in 10.0 mi North 12.7 mph - N/A   Scattered Clouds
5:35 AM 63.5 °F 60.8 °F 91% 30.10 in 10.0 mi NNW 11.5 mph - N/A   Mostly Cloudy
5:55 AM 63.0 °F 60.8 °F 93% 30.10 in 7.0 mi NNW 9.2 mph - N/A   Mostly Cloudy
6:15 AM 62.6 °F 60.4 °F 93% 30.10 in 7.0 mi North 5.8 mph - N/A   Scattered Clouds
6:35 AM 62.1 °F 60.1 °F 93% 30.12 in 5.0 mi North 4.6 mph - N/A   Scattered Clouds
6:55 AM 62.6 °F 60.8 °F 94% 30.12 in 7.0 mi NNW 8.1 mph - N/A   Scattered Clouds
7:15 AM 63.7 °F 61.7 °F 93% 30.12 in 10.0 mi North 12.7 mph 17.3 mph N/A   Mostly Cloudy
7:35 AM 64.4 °F 61.2 °F 89% 30.12 in 7.0 mi North 8.1 mph - N/A   Mostly Cloudy
7:55 AM 64.4 °F 61.5 °F 90% 30.13 in 7.0 mi NNW 11.5 mph - N/A   Mostly Cloudy
8:15 AM 65.3 °F 61.7 °F 88% 30.13 in 10.0 mi NNW 10.4 mph - N/A   Mostly Cloudy
8:35 AM 66.0 °F 61.9 °F 86% 30.14 in 10.0 mi NNW 11.5 mph - N/A   Scattered Clouds
8:55 AM 66.6 °F 61.7 °F 84% 30.14 in 10.0 mi North 9.2 mph - N/A   Clear
9:15 AM 68.2 °F 62.6 °F 82% 30.16 in 10.0 mi North 15.0 mph 19.6 mph N/A   Scattered Clouds
9:35 AM 67.1 °F 62.4 °F 85% 30.17 in 10.0 mi North 15.0 mph 20.7 mph N/A   Overcast
9:55 AM 67.3 °F 61.9 °F 83% 30.17 in 10.0 mi NNE 10.4 mph - N/A   Overcast
10:15 AM 68.9 °F 62.1 °F 79% 30.17 in 10.0 mi North 10.4 mph - N/A   Overcast
10:35 AM 69.6 °F 62.4 °F 78% 30.17 in 10.0 mi North 11.5 mph - N/A   Overcast
10:55 AM 69.8 °F 62.6 °F 78% 30.18 in 10.0 mi NNW 9.2 mph - N/A   Overcast
11:15 AM 70.7 °F 62.1 °F 74% 30.18 in 10.0 mi NNW 9.2 mph - N/A   Overcast
11:35 AM 72.7 °F 61.9 °F 69% 30.18 in 10.0 mi NNE 10.4 mph - N/A   Overcast
11:55 AM 73.4 °F 60.4 °F 64% 30.19 in 10.0 mi NNW 8.1 mph - N/A   Mostly Cloudy
12:15 PM 72.5 °F 61.9 °F 69% 30.19 in 10.0 mi North 10.4 mph - N/A   Overcast
12:35 PM 74.1 °F 61.2 °F 64% 30.19 in 10.0 mi North 8.1 mph - N/A   Overcast
12:55 PM 73.6 °F 61.5 °F 66% 30.19 in 10.0 mi North 16.1 mph - N/A   Overcast
1:15 PM 74.5 °F 61.3 °F 63% 30.19 in 10.0 mi North 11.5 mph - N/A   Overcast
1:35 PM 74.1 °F 60.1 °F 61% 30.19 in 10.0 mi North 11.5 mph - N/A   Overcast
1:55 PM 74.7 °F 60.1 °F 60% 30.19 in 10.0 mi North 15.0 mph 20.7 mph N/A   Mostly Cloudy
2:15 PM 75.6 °F 61.3 °F 61% 30.19 in 10.0 mi NNE 16.1 mph 19.6 mph N/A   Scattered Clouds
2:35 PM 75.6 °F 60.8 °F 60% 30.19 in 10.0 mi NNE 13.8 mph 19.6 mph N/A   Scattered Clouds
2:55 PM 75.6 °F 59.5 °F 57% 30.19 in 10.0 mi NNE 11.5 mph - N/A   Scattered Clouds
3:15 PM 76.8 °F 60.1 °F 56% 30.19 in 10.0 mi North 13.8 mph 17.3 mph N/A   Scattered Clouds
3:35 PM 76.6 °F 59.5 °F 55% 30.19 in 10.0 mi NNE 12.7 mph 19.6 mph N/A   Clear
3:55 PM 77.5 °F 59.0 °F 53% 30.19 in 10.0 mi North 12.7 mph 16.1 mph N/A   Clear
4:15 PM 78.3 °F 59.2 °F 52% 30.18 in 10.0 mi NNE 11.5 mph 17.3 mph N/A   Clear
4:35 PM 77.0 °F 58.8 °F 53% 30.18 in 10.0 mi NE 12.7 mph 20.7 mph N/A   Scattered Clouds
4:55 PM 78.8 °F 59.2 °F 51% 30.18 in 10.0 mi NNE 12.7 mph 17.3 mph N/A   Scattered Clouds
5:15 PM 78.8 °F 58.5 °F 50% 30.18 in 10.0 mi NNE 10.4 mph 17.3 mph N/A   Scattered Clouds
5:35 PM 78.3 °F 58.5 °F 50% 30.17 in 10.0 mi North 10.4 mph - N/A   Scattered Clouds
5:55 PM 78.6 °F 57.9 °F 49% 30.17 in 10.0 mi NNE 10.4 mph 16.1 mph N/A   Scattered Clouds
6:15 PM 78.6 °F 57.7 °F 49% 30.17 in 10.0 mi NNE 9.2 mph - N/A   Clear
6:35 PM 78.4 °F 57.0 °F 48% 30.17 in 10.0 mi NNE 8.1 mph - N/A   Scattered Clouds
6:55 PM 78.1 °F 57.0 °F 48% 30.17 in 10.0 mi NE 8.1 mph - N/A   Clear
7:15 PM 77.9 °F 57.2 °F 49% 30.17 in 10.0 mi North 11.5 mph - N/A   Clear
7:35 PM 77.0 °F 57.4 °F 51% 30.17 in 10.0 mi NNE 9.2 mph - N/A   Clear
7:55 PM 75.6 °F 57.4 °F 53% 30.17 in 10.0 mi North 8.1 mph - N/A   Clear
8:15 PM 73.9 °F 58.3 °F 58% 30.18 in 10.0 mi NNE 6.9 mph - N/A   Clear
8:35 PM 71.4 °F 59.2 °F 65% 30.18 in 10.0 mi NNE 6.9 mph - N/A   Clear
8:55 PM 68.9 °F 59.9 °F 73% 30.19 in 10.0 mi NNE 6.9 mph - N/A   Clear
9:15 PM 67.5 °F 60.3 °F 78% 30.20 in 10.0 mi NNE 6.9 mph - N/A   Clear
9:35 PM 66.7 °F 60.3 °F 80% 30.20 in 10.0 mi NE 5.8 mph - N/A   Clear
9:55 PM 66.2 °F 60.4 °F 82% 30.22 in 10.0 mi NE 5.8 mph - N/A   Clear
10:15 PM 66.4 °F 60.1 °F 80% 30.22 in 10.0 mi ENE 4.6 mph - N/A   Clear
10:35 PM 65.3 °F 60.1 °F 83% 30.23 in 10.0 mi NNE 6.9 mph - N/A   Clear
10:55 PM 65.1 °F 59.9 °F 83% 30.24 in 10.0 mi NNE 8.1 mph - N/A   Clear
11:15 PM 64.6 °F 59.9 °F 85% 30.25 in 10.0 mi ENE 4.6 mph - N/A   Clear
11:35 PM 63.5 °F 59.9 °F 88% 30.26 in 10.0 mi ENE 4.6 mph - N/A   Clear
11:55 PM 63.3 °F 59.7 °F 88% 30.27 in 10.0 mi Calm Calm - N/A   Clear